Regional Weather Roundup
Issued by NWS

Home | Current Version | Previous Version | Text Only | Print | Product List | Glossary Off
Versions: 1 2 3 4 5 6 7 8 9 10 11 12 13 14 15 16 17 18 19 20 21 22 23 24 25 26 27 28 29 30 31 32 33 34 35 36 37 38 39 40 41 42 43 44 45 46 47 48 49 50

000
ASUS43 KIND 241459
RWRIN

WEATHER ROUNDUP FOR INDIANA
NATIONAL WEATHER SERVICE INDIANAPOLIS IN
1000 AM EST SAT FEB 24 2018

NOTE: "FAIR" INDICATES FEW OR NO CLOUDS BELOW 12,000 FEET WITH NO
SIGNIFICANT WEATHER AND/OR OBSTRUCTIONS TO VISIBILITY.

* - STATION DOES NOT REPORT WEATHER SUCH AS PRECIPITATION OR FOG.

+ - STATION NOT QUALITY CONTROLLED BY THE NATIONAL WEATHER SERVICE.
    USE DATA WITH CAUTION...ESPECIALLY DEWPOINT AND RELATIVE
    HUMIDITY OBSERVATIONS.

INZ001>003-010>013-019-020-241600-
NORTHWEST INDIANA

CITY           SKY/WX    TMP DP  RH WIND       PRES   REMARKS
GARY /AIRPORT/ CLOUDY    37  32  81 E12       30.17S WCI  30
MONTICELLO +   RAIN      37  36  95 E8        30.13S WCI  31
RENSSELAER +   CLOUDY    37  34  87 E15       30.14F FOG     WCI  28
VALPARAISO     CLOUDY    37  34  87 E10       30.16S WCI  30

$$

LMZ046-743>745-241600-
SOUTHERN LAKE MICHIGAN

STATION/POSITION TIME  TEMP    WIND        PRES    WAVE
                       AIR SEA DIR/SP/G            HT
                 (UTC) (F)     (DEG/KT/KT) (MB)    (FT)
BURNS HARBOR     1440   34      50/  9/ 10 1022.0F
MICHIGAN CITY    1430   35      70/  6/  8   N/A

$$

INZ004-005-014>016-021>024-241600-
NORTH CENTRAL INDIANA

CITY           SKY/WX    TMP DP  RH WIND       PRES   REMARKS
ELKHART        CLOUDY    37  32  81 E9        30.18S WCI  31
GOSHEN         CLOUDY    38  33  82 E13       30.16F WCI  30
PERU/GRISSOM   LGT RAIN  39  39 100 E12       30.12F WCI  31
SOUTH BEND     CLOUDY    36  31  82 E9        30.18S WCI  29
WARSAW +       LGT RAIN  36  34  93 W9        30.16F WCI  29

$$

INZ006>009-017-018-025>027-241600-
NORTHEAST INDIANA

CITY           SKY/WX    TMP DP  RH WIND       PRES   REMARKS
AUBURN +       DRIZZLE   36  36 100 E8        30.20R WCI  29
FORT WAYNE     LGT RAIN  38  36  92 E12       30.17F FOG     WCI  30
KENDALLVILLE + CLOUDY    36  34  92 E5        30.18F WCI  32

$$

INZ028-029-035-036-043>045-051>053-241600-
WEST CENTRAL INDIANA

CITY           SKY/WX    TMP DP  RH WIND       PRES   REMARKS
GREENCASTLE +  RAIN      41  41 100 E9        30.08F
LAFAYETTE      CLOUDY    39  39 100 E12       30.12F FOG     WCI  32
TERRE HAUTE    RAIN      44  44 100 E13       30.04F FOG

$$

INZ030>032-037>040-046>048-054>057-064-065-241600-
CENTRAL INDIANA

CITY           SKY/WX    TMP DP  RH WIND       PRES   REMARKS
ANDERSON       CLOUDY    41  41 100 MISG      30.14S
INDIANAPOLIS   HVY RAIN  43  42  97 E10       30.10F FOG
-EAGLE CREEK   HVY RAIN  43  41  93 E9        30.09F FOG
KOKOMO +       LGT RAIN  39  38  96 E14       30.13F FOG     WCI  31
MT COMFORT *+  CLOUDY    41  41 100 E7        30.13F
SHELBYVILLE    RAIN      45  42  89 E12       30.11F FOG

$$

INZ033-034-041-042-049-050-058-059-241600-
EAST CENTRAL INDIANA

CITY           SKY/WX    TMP DP  RH WIND       PRES   REMARKS
MUNCIE         LGT RAIN  43  41  93 E7        30.15R FOG
RICHMOND +     LGT RAIN  43  43 100 E8        30.14R

$$

INZ060-061-067>069-081>083-085>088-241600-
SOUTHWEST INDIANA

CITY           SKY/WX    TMP DP  RH WIND       PRES   REMARKS
EVANSVILLE     LGT RAIN  49  49 100 E9        30.05F
HUNTINGBURG +  LGT RAIN  48  47  96 E9        30.06F

$$

INZ062-063-066-070>080-084-089>092-241600-
SOUTH CENTRAL AND SOUTHEAST INDIANA

CITY           SKY/WX    TMP DP  RH WIND       PRES   REMARKS
BLOOMINGTON    LGT RAIN  45  44  97 E12       30.06F
FRENCH LICK *+ CLOUDY    45 N/A N/A E10       30.08F
MADISON *+     CLOUDY    46  45  93 NE13G21   30.12S
SEYMOUR +      RAIN      48  48 100 CALM      30.12R

$$




USA.gov is the U.S. government's official web portal to all federal, state and local government web resources and services.